Date String (YYYY-MM-DD hh:mm:ss) UTC,Instrument flags,absolute air pressure of the measurement (hPa),sample flow rate (lpm),inlet stack bypass flow (lpm),air temperature of the measurement (°C),ambient temperature measured by the external sensor (°C),aerosol sample conditioner tube jacket temperature (°C),OPC LED temperature (°C),internal box temperature (°C),relative humidity of the measurement (%),span deviation,mass concentration of particles derived from Lorenz-Mie calculation of OPC scattering (μg/m³),mass concentration of particles derived from Lorenz-Mie calculation of OPC scattering (μg/m³),mass concentration of particles derived from Lorenz-Mie calculation of OPC scattering (μg/m³)
DateTimeUTC,F1_M11,P_M11,Q1_M11,Q2_M11,T1_M11,T2_M11,T3_M11,T4_M11,T5_M11,U1_M11,ZSPAN_M11,X0_M11,X2_M11,X1_M11
2024-01-02 08:00:00,SystemResetWarning,0833.2,5.01,000.00,024.2,023.3,000.0,032.5,025.5,11.4,0000.0,0008.36,0004.50,0004.14
2024-01-02 08:01:00,SystemResetWarning,0833.2,5.00,000.00,024.2,023.3,000.0,032.5,025.5,11.4,0000.0,0008.33,0004.50,0004.14
2024-01-02 08:02:00,SystemResetWarning,0833.1,5.00,000.00,024.2,023.3,000.0,032.5,025.5,11.4,0000.0,0008.21,0004.46,0004.12
2024-01-02 08:03:00,SystemResetWarning,0833.1,5.00,000.00,024.2,023.3,000.0,032.5,025.5,11.4,0000.0,0008.17,0004.44,0004.10
2024-01-02 08:04:00,SystemResetWarning,0833.0,5.00,000.00,024.2,023.3,000.0,032.5,025.5,11.4,0000.0,0007.96,0004.38,0004.07
2024-01-02 08:05:00,SystemResetWarning,0833.1,5.00,000.00,024.2,023.3,000.0,032.5,025.5,11.4,0000.0,0008.24,0004.38,0004.06
2024-01-02 08:06:00,SystemResetWarning,0833.0,5.00,000.00,024.2,023.3,000.0,032.5,025.5,11.4,0000.0,0008.01,0004.42,0004.07
2024-01-02 08:07:00,SystemResetWarning,0833.4,5.00,000.00,024.2,023.3,000.0,032.5,025.5,11.4,-000.2,0008.60,0004.42,0004.07
2024-01-02 08:08:00,SystemResetWarning,0833.2,5.00,000.00,024.2,023.3,000.0,032.5,025.5,11.4,0000.0,0008.70,0004.43,0004.04
2024-01-02 08:09:00,SystemResetWarning,0833.0,5.00,000.00,024.2,023.3,000.0,032.5,025.5,11.4,0000.0,0008.84,0004.43,0004.03
2024-01-02 08:10:00,SystemResetWarning,0833.1,5.00,000.00,024.2,023.3,000.0,032.5,025.5,11.4,0000.0,0009.25,0004.44,0004.04
2024-01-02 08:11:00,SystemResetWarning,0833.0,5.00,000.00,024.2,023.3,000.0,032.5,025.5,11.4,0000.0,0009.61,0004.48,0004.05
2024-01-02 08:12:00,SystemResetWarning,0833.0,5.00,000.00,024.2,023.3,000.0,032.5,025.5,11.4,0000.0,0010.09,0004.50,0004.07
2024-01-02 08:13:00,SystemResetWarning,0833.1,5.00,000.00,024.2,023.3,000.0,032.5,025.5,11.4,0000.0,0010.32,0004.50,0004.09
2024-01-02 08:14:00,SystemResetWarning,0833.4,5.00,000.00,024.2,023.3,000.0,032.5,025.5,11.4,0000.0,0010.63,0004.56,0004.12
2024-01-02 08:15:00,SystemResetWarning,0833.3,5.00,000.00,024.2,023.3,000.0,032.5,025.5,11.4,0000.0,0010.79,0004.62,0004.17
2024-01-02 08:16:00,SystemResetWarning,0833.3,5.00,000.00,024.2,023.3,000.0,032.5,025.5,11.4,0000.0,0010.77,0004.70,0004.20
2024-01-02 08:17:00,SystemResetWarning,0833.3,5.00,000.00,024.2,023.3,000.0,032.5,025.5,11.4,0000.7,0010.85,0004.75,0004.22
2024-01-02 08:18:00,SystemResetWarning,0833.2,5.00,000.00,024.2,023.3,000.0,032.5,025.5,11.4,0000.0,0010.48,0004.78,0004.23
2024-01-02 08:19:00,SystemResetWarning,0833.0,5.00,000.00,024.2,023.3,000.0,032.5,025.5,11.4,0000.0,0010.97,0004.74,0004.22
2024-01-02 08:20:00,SystemResetWarning,0833.3,5.00,000.00,024.2,023.3,000.0,032.5,025.5,11.4,0000.0,0011.03,0004.74,0004.21
2024-01-02 08:21:00,SystemResetWarning,0833.5,5.00,000.00,024.2,023.3,000.0,032.5,025.5,11.4,0002.2,0010.85,0004.75,0004.21
2024-01-02 08:22:00,SystemResetWarning,0833.3,5.00,000.00,024.1,023.3,000.0,032.5,025.5,11.4,0006.2,0010.66,0004.74,0004.20
2024-01-02 08:23:00,SystemResetWarning,0833.2,5.00,000.00,024.1,023.3,000.0,032.5,025.5,11.4,0006.7,0010.48,0004.73,0004.19
2024-01-02 08:24:00,SystemResetWarning,0833.1,5.00,000.00,024.1,023.3,000.0,032.5,025.5,11.4,0004.6,0010.25,0004.72,0004.16
2024-01-02 08:25:00,SystemResetWarning,0833.1,5.00,000.00,024.1,023.3,000.0,032.5,025.5,11.4,0000.0,0010.12,0004.69,0004.15
2024-01-02 08:26:00,SystemResetWarning,0833.1,5.00,000.00,024.1,023.3,000.0,032.5,025.5,11.4,0000.0,0009.96,0004.67,0004.13
2024-01-02 08:27:00,SystemResetWarning,0833.2,5.00,000.00,024.1,023.3,000.0,032.5,025.5,11.4,0000.5,0009.78,0004.63,0004.13
2024-01-02 08:28:00,SystemResetWarning,0833.2,5.00,000.00,024.1,023.3,000.0,032.5,025.5,11.4,0000.3,0009.38,0004.60,0004.14
2024-01-02 08:29:00,SystemResetWarning,0833.2,5.00,000.00,024.1,023.2,000.0,032.4,025.5,11.4,0000.0,0009.35,0004.57,0004.15
2024-01-02 08:30:00,SystemResetWarning,0833.1,5.00,000.00,024.1,023.2,000.0,032.4,025.5,11.4,0000.0,0009.16,0004.62,0004.18
2024-01-02 08:31:00,SystemResetWarning,0833.2,5.01,000.00,024.1,023.2,000.0,032.4,025.5,11.4,0000.0,0008.99,0004.64,0004.21
2024-01-02 08:32:00,SystemResetWarning,0833.2,5.00,000.00,024.1,023.2,000.0,032.4,025.5,11.4,0000.0,0009.07,0004.63,0004.23
2024-01-02 08:33:00,SystemResetWarning,0833.2,5.00,000.00,024.1,023.1,000.0,032.4,025.5,11.5,0000.0,0009.04,0004.66,0004.24
2024-01-02 08:34:00,SystemResetWarning,0833.2,5.00,000.00,024.1,023.1,000.0,032.4,025.4,11.5,0000.0,0009.24,0004.68,0004.28
2024-01-02 08:35:00,SystemResetWarning,0833.2,5.00,000.00,024.1,023.1,000.0,032.4,025.4,11.5,0000.0,0011.15,0004.77,0004.33
2024-01-02 08:36:00,SystemResetWarning,0833.2,4.99,000.00,024.1,023.0,000.0,032.4,025.4,11.5,0000.0,0011.21,0004.83,0004.38
2024-01-02 08:37:00,SystemResetWarning,0833.2,5.00,000.00,024.1,023.0,000.0,032.4,025.4,11.5,0000.0,0011.26,0004.89,0004.42
2024-01-02 08:38:00,SystemResetWarning,0833.2,5.00,000.00,024.1,022.9,000.0,032.4,025.4,11.5,0001.8,0011.33,0004.91,0004.43
2024-01-02 08:39:00,SystemResetWarning,0833.2,5.00,000.00,024.0,022.9,000.0,032.4,025.4,11.5,0000.0,0011.48,0004.96,0004.45
2024-01-02 08:40:00,SystemResetWarning,0833.2,5.00,000.00,024.0,022.9,000.0,032.4,025.3,11.6,0000.3,0011.82,0005.01,0004.47
2024-01-02 08:41:00,SystemResetWarning,0833.2,5.01,000.00,024.0,022.8,000.0,032.4,025.3,11.6,0003.2,0011.72,0005.02,0004.47
2024-01-02 08:42:00,SystemResetWarning,0833.2,5.00,000.00,024.0,022.8,000.0,032.4,025.3,11.6,0000.0,0011.75,0005.07,0004.49
2024-01-02 08:43:00,SystemResetWarning,0833.2,5.00,000.00,024.0,022.8,000.0,032.4,025.3,11.6,0000.0,0011.54,0005.10,0004.51
2024-01-02 08:44:00,SystemResetWarning,0833.1,5.00,000.00,024.0,022.7,000.0,032.4,025.3,11.6,0000.0,0011.45,0005.11,0004.53
2024-01-02 08:45:00,SystemResetWarning,0833.1,5.00,000.00,024.0,022.7,000.0,032.3,025.3,11.6,0000.0,0011.38,0005.10,0004.53
2024-01-02 08:46:00,SystemResetWarning,0833.2,5.00,000.00,023.9,022.7,000.0,032.3,025.2,11.6,0000.0,0009.36,0005.04,0004.51
2024-01-02 08:47:00,SystemResetWarning,0833.2,5.01,000.00,023.9,022.7,000.0,032.3,025.2,11.6,0000.0,0009.31,0005.06,0004.49
2024-01-02 08:48:00,SystemResetWarning,0833.2,5.01,000.00,023.9,022.7,000.0,032.3,025.2,11.6,0000.0,0009.32,0005.04,0004.46
2024-01-02 08:49:00,SystemResetWarning,0833.2,5.00,000.00,023.9,022.7,000.0,032.3,025.2,11.7,0000.0,0009.33,0005.02,0004.44
2024-01-02 08:50:00,SystemResetWarning,0833.2,5.00,000.00,023.9,022.6,000.0,032.3,025.1,11.7,0000.0,0009.57,0004.99,0004.42
2024-01-02 08:51:00,SystemResetWarning,0833.2,5.00,000.00,023.9,022.6,000.0,032.3,025.1,11.7,0000.0,0009.64,0004.98,0004.40
2024-01-02 08:52:00,SystemResetWarning,0833.2,5.00,000.00,023.8,022.6,000.0,032.2,025.1,11.7,0000.0,0009.14,0004.91,0004.36
2024-01-02 08:53:00,SystemResetWarning,0833.2,5.00,000.00,023.8,022.5,000.0,032.2,025.1,11.8,0000.0,0008.94,0004.84,0004.31
2024-01-02 08:54:00,SystemResetWarning,0833.2,5.00,000.00,023.8,022.5,000.0,032.2,025.1,11.8,0000.0,0008.85,0004.77,0004.26
2024-01-02 08:55:00,SystemResetWarning,0833.3,5.00,000.00,023.8,022.5,000.0,032.2,025.0,11.8,0000.0,0008.75,0004.71,0004.21
2024-01-02 08:56:00,SystemResetWarning,0833.2,5.00,000.00,023.8,022.4,000.0,032.2,025.0,11.8,0000.0,0008.36,0004.65,0004.18
2024-01-02 08:57:00,SystemResetWarning,0833.3,5.00,000.00,023.8,022.4,000.0,032.2,025.0,11.8,0000.0,0008.14,0004.60,0004.15
2024-01-02 08:58:00,SystemResetWarning,0833.3,4.99,000.00,023.7,022.4,000.0,032.2,025.0,11.8,0000.0,0008.06,0004.54,0004.12
2024-01-02 08:59:00,SystemResetWarning,0833.3,4.99,000.00,023.7,022.4,000.0,032.1,025.0,11.8,0000.0,0007.99,0004.49,0004.10
